Location: Daerah Kuala Lumpur
(3.1167°N, 101.6833°E)
Time: 09:20:39
(UTC+00:00)

Cosmos 1833 Rocket - Pass Details

Date: 05 August 2024
Orbit: 830 x 840 km, 71.0° (Epoch: 15 September)

Event Time Altitude Azimuth Distance (km) Brightness Sun altitude
Rises 12:03:23 0° 346° (NNW) 3,377 6.3 -9.6°
Reaches altitude 10° 12:05:49 10° 347° (NNW) 2,444 5.5 -10.2°
Maximum altitude 12:11:26 83° 75° (ENE) 846 2.6 -11.5°
Drops below altitude 10° 12:17:03 10° 163° (SSE) 2,446 4.8 -12.9°
Sets 12:19:29 0° 163° (SSE) 3,380 5.5 -13.5°
